Spokane Fairchild, WA

7:22 AM PDT on May 30, 2017 (GMT -0700)
Fairchild Air Force Base

Weather History for KSKA - February, 2014

Change the Weather History Date:

Sunday, February 9, 2014

  Actual Average Record
Temperature  
Mean Temperature 18 °F -  
Max Temperature 21 °F 36 °F 50 °F (2015)
Min Temperature 15 °F 23 °F 15 °F (2014)
Degree Days  
Heating Degree Days 47    
Moisture  
Dew Point 15 °F    
Average Humidity 89    
Maximum Humidity 100    
Minimum Humidity 63    
Precipitation  
Precipitation 0.00 in - - ()
Snow  
Snow 0.00 in - - ()
Snow Depth 5.00 in    
Sea Level Pressure  
Sea Level Pressure 30.06 in    
Wind  
Wind Speed 9 mph (East)    
Max Wind Speed 18 mph    
Max Gust Speed -    
Visibility 8 miles    
Events Snow    
Averages and records for this station are not official NWS values.
T = Trace of Precipitation, MM = Missing Value Source: NWS Daily Summary

Daily Weather History Graph

Daily Weather History Graph

Search for Another Location

Airport or City:

Trip Planner

Search our weather history database for the weather conditions in past years. The results will help you decide how hot, cold, wet, or windy it might be!

Date:

Astronomy

Feb. 09, 2014 Rise Set
Actual Time 7:05 AM PST 5:04 PM PST
Civil Twilight 6:33 AM PST 5:36 PM PST
Nautical Twilight 5:57 AM PST 6:13 PM PST
Astronomical Twilight 5:21 AM PST 6:49 PM PST
Moon 12:40 PM PST (2/9) 3:22 AM PST (2/9)
Length of Visible Light 11h 03m
Length of Day
9h 58m
Waxing Gibbous, 78% of the Moon is Illuminated
Feb 9
Waxing Gibbous
Feb 14
Full
Feb 22
Last Quarter
Mar 1
New
Mar 8
First Quarter

Hourly Weather History & Observations

Time (PST) Temp. Windchill Dew Point Humidity Pressure Visibility Wind Dir Wind Speed Gust Speed Precip Events Conditions
12:09 AM 19.4 °F 5.0 °F 8.6 °F 63% 29.87 in 10.0 mi NNE 16.1 mph - N/A Snow Light Snow
12:14 AM 19.4 °F 6.0 °F 8.6 °F 63% 29.87 in 10.0 mi NNE 13.8 mph - N/A Snow Light Snow
12:54 AM 17.6 °F 2.7 °F 12.2 °F 79% 29.88 in 3.0 mi NNE 16.1 mph - N/A Snow Light Snow
12:58 AM 18.3 °F 3.6 °F 12.2 °F 77% 29.99 in 3.0 mi North 16.1 mph - 0.00 in Snow Light Snow
1:18 AM 17.6 °F 1.7 °F 14.0 °F 86% 29.88 in 3.0 mi NNE 18.4 mph - N/A Snow Light Snow
1:28 AM 17.6 °F 3.2 °F 12.2 °F 79% 29.89 in 4.0 mi NNE 15.0 mph - N/A Snow Light Snow
1:48 AM 17.6 °F 5.0 °F 12.2 °F 79% 29.91 in 8.0 mi NNE 11.5 mph - N/A Snow Light Snow
1:58 AM 17.6 °F 4.3 °F 12.2 °F 79% 30.03 in 7.0 mi NE 12.7 mph - 0.00 in Snow Light Snow
2:03 AM 17.6 °F 5.7 °F 12.2 °F 79% 29.91 in 5.0 mi NNE 10.4 mph - N/A Snow Light Snow
2:31 AM 17.6 °F 5.0 °F 12.2 °F 79% 29.92 in 2.5 mi NE 11.5 mph - N/A Snow Light Snow
2:39 AM 17.6 °F 4.3 °F 12.2 °F 79% 29.92 in 3.0 mi NNE 12.7 mph - N/A Snow Light Snow
2:47 AM 17.6 °F 5.0 °F 12.2 °F 79% 29.92 in 4.0 mi NNE 11.5 mph - N/A Snow Light Snow
2:52 AM 17.6 °F 4.3 °F 12.2 °F 79% 29.93 in 6.0 mi NE 12.7 mph - N/A Snow Light Snow
2:58 AM 17.4 °F 5.4 °F 12.4 °F 81% 30.05 in 8.0 mi NNE 10.4 mph - 0.00 in Snow Light Snow
3:08 AM 17.6 °F 4.3 °F 12.2 °F 79% 29.94 in 10.0 mi NNE 12.7 mph - N/A Snow Light Snow
3:13 AM 17.6 °F 4.3 °F 12.2 °F 79% 29.94 in 10.0 mi NE 12.7 mph - N/A Snow Light Snow
3:18 AM 17.6 °F 6.4 °F 12.2 °F 79% 29.95 in 10.0 mi NNE 9.2 mph - N/A   Overcast
3:33 AM 17.6 °F 5.7 °F 12.2 °F 79% 29.96 in 10.0 mi NNE 10.4 mph - N/A Snow Light Snow
3:38 AM 17.6 °F 8.2 °F 12.2 °F 79% 29.96 in 10.0 mi NNE 6.9 mph - N/A Snow Light Snow
3:47 AM 17.6 °F 9.3 °F 12.2 °F 79% 29.97 in 10.0 mi NNE 5.8 mph - N/A Snow Light Snow
3:58 AM 18.0 °F 11.1 °F 12.2 °F 78% 30.10 in 9.0 mi NE 4.6 mph - 0.00 in Snow Light Snow
4:48 AM 17.6 °F 10.7 °F 14.0 °F 86% 30.00 in 9.0 mi ENE 4.6 mph - N/A Snow Light Snow
4:58 AM 17.4 °F 10.4 °F 13.5 °F 84% 30.13 in 4.0 mi East 4.6 mph - 0.00 in Snow Light Snow
5:02 AM 17.6 °F 9.3 °F 14.0 °F 86% 30.01 in 2.5 mi ENE 5.8 mph - N/A Snow Light Snow
5:14 AM 17.6 °F 10.7 °F 14.0 °F 86% 30.01 in 3.0 mi ENE 4.6 mph - N/A Snow Light Snow
5:28 AM 15.8 °F 6.1 °F 14.0 °F 93% 30.01 in 4.0 mi ENE 6.9 mph - N/A Snow Light Snow
5:43 AM 15.8 °F 6.1 °F 14.0 °F 93% 30.02 in 7.0 mi ENE 6.9 mph - N/A Snow Light Snow
5:53 AM 15.8 °F 7.2 °F 14.0 °F 93% 30.02 in 10.0 mi East 5.8 mph - N/A   Overcast
5:58 AM 16.7 °F 8.3 °F 13.8 °F 88% 30.14 in 10.0 mi ENE 5.8 mph - 0.00 in   Overcast
6:13 AM 15.8 °F 5.1 °F 14.0 °F 93% 30.02 in 10.0 mi ENE 8.1 mph - N/A   Overcast
6:14 AM 15.8 °F 5.1 °F 14.0 °F 93% 30.02 in 10.0 mi ENE 8.1 mph - N/A Snow Light Snow
6:23 AM 15.8 °F 5.1 °F 14.0 °F 93% 30.02 in 10.0 mi ENE 8.1 mph - N/A   Overcast
6:47 AM 15.8 °F 5.1 °F 12.2 °F 86% 30.02 in 10.0 mi NE 8.1 mph - N/A Snow Light Snow
6:57 AM 15.8 °F 6.1 °F 12.2 °F 86% 30.02 in 10.0 mi NE 6.9 mph - N/A Snow Light Snow
6:58 AM 16.5 °F 6.9 °F 12.7 °F 85% 30.14 in 10.0 mi NE 6.9 mph - 0.00 in Snow Light Snow
7:08 AM 15.8 °F 5.1 °F 12.2 °F 86% 30.02 in 10.0 mi ENE 8.1 mph - N/A Snow Light Snow
7:18 AM 15.8 °F 3.4 °F 14.0 °F 93% 30.03 in 10.0 mi ENE 10.4 mph - N/A Snow Light Snow
7:38 AM 15.8 °F 4.2 °F 14.0 °F 93% 30.03 in 6.0 mi ENE 9.2 mph - N/A Snow Light Snow
7:53 AM 15.8 °F 4.2 °F 14.0 °F 93% 30.04 in 7.0 mi ENE 9.2 mph - N/A Snow Light Snow
7:54 AM 15.8 °F 4.2 °F 14.0 °F 93% 30.04 in 7.0 mi ENE 9.2 mph - N/A Snow Light Snow
7:58 AM 16.7 °F 4.5 °F 14.0 °F 89% 30.17 in 9.0 mi East 10.4 mph - 0.00 in Snow Light Snow
7:59 AM 15.8 °F 3.4 °F 14.0 °F 93% 30.04 in 9.0 mi East 10.4 mph - N/A   Overcast
8:01 AM 15.8 °F 3.4 °F 14.0 °F 93% 30.04 in 9.0 mi East 10.4 mph - N/A Snow Light Snow
8:06 AM 15.8 °F 4.2 °F 14.0 °F 93% 30.05 in 9.0 mi East 9.2 mph - N/A Snow Light Snow
8:14 AM 15.8 °F 3.4 °F 14.0 °F 93% 30.05 in 9.0 mi ESE 10.4 mph - N/A   Overcast
8:17 AM 15.8 °F 2.7 °F 14.0 °F 93% 30.05 in 9.0 mi ESE 11.5 mph - N/A Snow Light Snow
8:28 AM 15.8 °F 5.1 °F 14.0 °F 93% 30.05 in 9.0 mi ESE 8.1 mph - N/A   Overcast
8:34 AM 15.8 °F 3.4 °F 14.0 °F 93% 30.05 in 9.0 mi ESE 10.4 mph - N/A Snow Light Snow
8:44 AM 15.8 °F 5.1 °F 14.0 °F 93% 30.06 in 9.0 mi ESE 8.1 mph - N/A   Overcast
8:46 AM 15.8 °F 5.1 °F 14.0 °F 93% 30.06 in 9.0 mi ESE 8.1 mph - N/A Snow Light Snow
8:58 AM 16.7 °F 7.2 °F 14.2 °F 90% 30.19 in 6.0 mi ESE 6.9 mph - 0.00 in Snow Light Snow
9:31 AM 17.6 °F 8.2 °F 14.0 °F 86% 30.07 in 10.0 mi ESE 6.9 mph - N/A   Overcast
9:36 AM 17.6 °F 8.2 °F 15.8 °F 93% 30.07 in 10.0 mi SE 6.9 mph - N/A   Overcast
9:41 AM 17.6 °F 7.3 °F 15.8 °F 93% 30.07 in 7.0 mi ESE 8.1 mph - N/A   Overcast
9:46 AM 17.6 °F 8.2 °F 15.8 °F 93% 30.07 in 4.0 mi ESE 6.9 mph - N/A   Overcast
9:55 AM 17.6 °F 7.3 °F 15.8 °F 93% 30.07 in 4.0 mi ESE 8.1 mph - N/A   Overcast
9:58 AM 17.4 °F 6.2 °F 15.8 °F 93% 30.19 in 6.0 mi ESE 9.2 mph - 0.00 in   Overcast
10:08 AM 17.6 °F 7.3 °F 15.8 °F 93% 30.07 in 2.5 mi ESE 8.1 mph - N/A   Overcast
10:12 AM 17.6 °F 8.2 °F 15.8 °F 93% 30.08 in 3.0 mi SE 6.9 mph - N/A   Overcast
10:22 AM 17.6 °F 7.3 °F 15.8 °F 93% 30.08 in 4.0 mi SE 8.1 mph - N/A   Overcast
10:28 AM 17.6 °F 9.3 °F 15.8 °F 93% 30.08 in 2.0 mi ESE 5.8 mph - N/A   Overcast
10:31 AM 17.6 °F 7.3 °F 15.8 °F 93% 30.08 in 1.8 mi ESE 8.1 mph - N/A Snow Light Snow
10:33 AM 17.6 °F 7.3 °F 15.8 °F 93% 30.08 in 1.5 mi ESE 8.1 mph - N/A Snow Light Snow
10:35 AM 17.6 °F 8.2 °F 15.8 °F 93% 30.08 in 1.2 mi ESE 6.9 mph - N/A Snow Light Snow
10:40 AM 17.6 °F 7.3 °F 15.8 °F 93% 30.08 in 1.0 mi ESE 8.1 mph - N/A Snow Light Snow
10:49 AM 17.6 °F 8.2 °F 15.8 °F 93% 30.08 in 1.0 mi East 6.9 mph - N/A   Mist
10:51 AM 17.6 °F 7.3 °F 15.8 °F 93% 30.08 in 1.0 mi East 8.1 mph - N/A Snow Light Snow
10:52 AM 17.6 °F 7.3 °F 15.8 °F 93% 30.08 in 0.8 mi East 8.1 mph - N/A Snow Light Snow
10:58 AM 18.1 °F 8.9 °F 16.3 °F 93% 30.20 in 0.8 mi East 6.9 mph - 0.00 in   Mist
11:01 AM 17.6 °F 8.2 °F 15.8 °F 93% 30.08 in 1.0 mi East 6.9 mph - N/A   Mist
11:02 AM 17.6 °F 7.3 °F 15.8 °F 93% 30.08 in 1.0 mi East 8.1 mph - N/A   Mist
11:08 AM 17.6 °F 8.2 °F 15.8 °F 93% 30.08 in 1.2 mi East 6.9 mph - N/A   Overcast
11:12 AM 17.6 °F 9.3 °F 15.8 °F 93% 30.08 in 1.5 mi East 5.8 mph - N/A   Overcast
11:14 AM 17.6 °F 8.2 °F 15.8 °F 93% 30.08 in 2.0 mi ESE 6.9 mph - N/A   Overcast
11:16 AM 17.6 °F 8.2 °F 15.8 °F 93% 30.08 in 2.5 mi East 6.9 mph - N/A   Overcast
11:18 AM 17.6 °F 9.3 °F 17.6 °F 100% 30.08 in 3.0 mi East 5.8 mph - N/A   Overcast
11:33 AM 19.4 °F 10.4 °F 17.6 °F 93% 30.08 in 9.0 mi ESE 6.9 mph - N/A   Overcast
11:40 AM 19.4 °F 11.5 °F 17.6 °F 93% 30.09 in 9.0 mi ESE 5.8 mph - N/A Snow Light Snow
11:47 AM 19.4 °F 11.5 °F 17.6 °F 93% 30.09 in 10.0 mi SE 5.8 mph - N/A   Overcast
11:52 AM 19.4 °F - 17.6 °F 93% 30.08 in 10.0 mi ESE 2.3 mph - N/A   Overcast
11:58 AM 19.0 °F 11.1 °F 17.2 °F 93% 30.20 in 10.0 mi East 5.8 mph - 0.00 in   Overcast
12:17 PM 19.4 °F 11.5 °F 17.6 °F 93% 30.08 in 10.0 mi ESE 5.8 mph - N/A Snow Light Snow
12:27 PM 19.4 °F 12.8 °F 17.6 °F 93% 30.08 in 10.0 mi ESE 4.6 mph - N/A   Overcast
12:37 PM 19.4 °F 11.5 °F 17.6 °F 93% 30.08 in 10.0 mi ESE 5.8 mph - N/A Snow Light Snow
12:42 PM 19.4 °F 11.5 °F 17.6 °F 93% 30.08 in 10.0 mi East 5.8 mph - N/A Snow Light Snow
12:49 PM 19.4 °F 12.8 °F 17.6 °F 93% 30.08 in 10.0 mi East 4.6 mph - N/A   Overcast
12:58 PM 19.0 °F 11.1 °F 17.4 °F 93% 30.20 in 10.0 mi East 5.8 mph - 0.00 in   Overcast
1:41 PM 19.4 °F 12.8 °F 17.6 °F 93% 30.08 in 10.0 mi East 4.6 mph - N/A Snow Light Snow
1:50 PM 19.4 °F 12.8 °F 17.6 °F 93% 30.07 in 10.0 mi ESE 4.6 mph - N/A   Overcast
1:57 PM 19.4 °F 10.4 °F 17.6 °F 93% 30.07 in 10.0 mi ESE 6.9 mph - N/A Snow Light Snow
1:58 PM 19.4 °F 10.4 °F 17.6 °F 93% 30.19 in 10.0 mi ESE 6.9 mph - 0.00 in Snow Light Snow
2:03 PM 19.4 °F 10.4 °F 17.6 °F 93% 30.07 in 10.0 mi East 6.9 mph - N/A Snow Light Snow
2:05 PM 19.4 °F 10.4 °F 17.6 °F 93% 30.07 in 10.0 mi East 6.9 mph - N/A   Overcast
2:25 PM 19.4 °F 12.8 °F 17.6 °F 93% 30.08 in 10.0 mi East 4.6 mph - N/A   Overcast
2:50 PM 19.4 °F 12.8 °F 17.6 °F 93% 30.08 in 10.0 mi ESE 4.6 mph - N/A   Overcast
2:58 PM 19.9 °F 11.1 °F 17.1 °F 89% 30.20 in 10.0 mi East 6.9 mph - 0.00 in   Overcast
3:28 PM 19.4 °F 12.8 °F 17.6 °F 93% 30.08 in 10.0 mi East 4.6 mph - N/A   Overcast
3:58 PM 20.3 °F 13.8 °F 16.7 °F 86% 30.20 in 10.0 mi ESE 4.6 mph - N/A   Overcast
4:08 PM 21.2 °F 13.6 °F 15.8 °F 80% 30.08 in 10.0 mi SE 5.8 mph - N/A Snow Light Snow
4:18 PM 21.2 °F 14.9 °F 17.6 °F 86% 30.07 in 10.0 mi ESE 4.6 mph - N/A   Overcast
4:22 PM 21.2 °F 13.6 °F 17.6 °F 86% 30.07 in 10.0 mi ESE 5.8 mph - N/A   Overcast
4:42 PM 21.2 °F 16.4 °F 17.6 °F 86% 30.07 in 10.0 mi East 3.5 mph - N/A   Overcast
4:58 PM 20.5 °F 15.6 °F 16.9 °F 86% 30.20 in 10.0 mi ESE 3.5 mph - 0.00 in   Overcast
5:33 PM 21.2 °F - 17.6 °F 86% 30.08 in 10.0 mi SSE 1.2 mph - N/A   Overcast
5:58 PM 20.1 °F - 17.1 °F 88% 30.21 in 10.0 mi Calm Calm - N/A   Overcast
6:14 PM 19.4 °F - 15.8 °F 86% 30.08 in 10.0 mi East 2.3 mph - N/A Snow Light Snow
6:25 PM 19.4 °F - 15.8 °F 86% 30.08 in 10.0 mi Calm Calm - N/A   Overcast
6:56 PM 19.4 °F - 17.6 °F 93% 30.08 in 10.0 mi ENE 1.2 mph - N/A Snow Light Snow
6:58 PM 19.4 °F - 17.6 °F 93% 30.21 in 10.0 mi ENE 2.3 mph - 0.00 in Snow Light Snow
7:08 PM 19.4 °F - 17.6 °F 93% 30.08 in 10.0 mi Calm Calm - N/A Snow Light Snow
7:23 PM 19.4 °F - 17.6 °F 93% 30.08 in 10.0 mi NE 2.3 mph - N/A   Overcast
7:41 PM 19.4 °F - 15.8 °F 86% 30.09 in 10.0 mi North 1.2 mph - N/A Snow Light Snow
7:56 PM 19.4 °F 14.3 °F 15.8 °F 86% 30.09 in 10.0 mi North 3.5 mph - N/A   Overcast
7:58 PM 19.4 °F 14.3 °F 15.8 °F 86% 30.22 in 10.0 mi North 3.5 mph - 0.00 in   Overcast
8:23 PM 19.4 °F 14.3 °F 15.8 °F 86% 30.09 in 10.0 mi North 3.5 mph - N/A Snow Light Snow
8:58 PM 19.2 °F 14.1 °F 16.7 °F 90% 30.23 in 10.0 mi NNW 3.5 mph - 0.00 in Snow Light Snow
9:58 PM 19.6 °F 13.0 °F 17.1 °F 90% 30.22 in 10.0 mi NNE 4.6 mph - 0.00 in Snow Light Snow
10:58 PM 20.1 °F 12.3 °F 17.6 °F 90% 30.23 in 10.0 mi NNE 5.8 mph - 0.00 in Snow Light Snow
11:58 PM 20.3 °F 11.5 °F 17.4 °F 89% 30.23 in 10.0 mi NNE 6.9 mph - 0.00 in   Overcast